ワイズ彗星

P/2010 D1 ( WISE )

English version
Home page
Updated on March 15, 2010

---------------------------------------------------------------------

・ プロフィール

発見日 2010年2月17日
発見光度
発見者 Wide Field Infrared Survey Explorer (NASA)

・ 軌道要素

Epoch 2009 June 18.0 TT = JDT 2455000.5
T 2009 June 25.58992 TT                                 MPC
q   2.6689628            (2000.0)            P               Q
n   0.11667016     Peri.  225.90030     +0.88925439     -0.45411453
a   4.1479118      Node   160.90079     +0.45275306     +0.85678030
e   0.3565527      Incl.    9.64709     +0.06512527     +0.24435119
P   8.45

・ 光度変化

        m1 = 12.5 + 5 logΔ + 10.0 log r

---------------------------------------------------------------------

軌道要素はM.P.E.C. 2010-D51に掲載されたものです。
光度グラフはComet for Windowsで作成したものです。

---------------------------------------------------------------------

Copyright(C) Seiichi Yoshida (comet@aerith.net). All rights reserved.